This is the latest recevied weather packets stored in our database for station/object K1JO. If no packets are shown the sender has not sent any weather packets the latest 10 day(s).
| Time | Temp. | Humidity | Pressure | Rain* | Wind** | Luminosity | Snow |
|---|---|---|---|---|---|---|---|
| 1777917068 | 11.67° C | 72% | 1001.6 hPa | 0 mm | - | 116 W/m² | - |
| 1777916767 | 11.67° C | 69% | 1001.8 hPa | 0 mm | - | 116 W/m² | - |
| 1777916463 | 12.22° C | 69% | 1001.5 hPa | 0 mm | - | 88 W/m² | - |
| 1777916159 | 12.22° C | 69% | 1001.5 hPa | 0 mm | - | 64 W/m² | - |
| 1777915857 | 12.78° C | 66% | 1001.6 hPa | 0 mm | - | 62 W/m² | - |
| 1777915553 | 12.78° C | 64% | 1001.4 hPa | 0 mm | - | 74 W/m² | - |
| 1777915250 | 12.78° C | 63% | 1001.2 hPa | 0 mm | - | 65 W/m² | - |
| 1777914946 | 13.33° C | 62% | 1001.4 hPa | 0 mm | - | 86 W/m² | - |
| 1777914644 | 13.33° C | 61% | 1001.3 hPa | 0 mm | - | 118 W/m² | - |
| 1777914339 | 13.89° C | 61% | 1001.2 hPa | 0 mm | - | 213 W/m² | - |
| 1777914037 | 13.33° C | 63% | 1001.1 hPa | 0 mm | - | 225 W/m² | - |
| 1777913733 | 13.33° C | 65% | 1001.1 hPa | 0 mm | - | 154 W/m² | - |
| 1777913430 | 12.78° C | 65% | 1000.9 hPa | 0 mm | - | 153 W/m² | - |
| 1777913126 | 12.78° C | 63% | 1000.5 hPa | 0 mm | - | 92 W/m² | - |
| 1777912823 | 12.78° C | 61% | 1000.5 hPa | 0 mm | - | 76 W/m² | - |
| 1777912519 | 13.33° C | 63% | 1000.6 hPa | 0 mm | - | 67 W/m² | - |
| 1777912216 | 13.33° C | 61% | 1000.5 hPa | 0 mm | - | 127 W/m² | - |
| 1777911912 | 13.89° C | 59% | 1000.6 hPa | 0 mm | - | 137 W/m² | - |
| 1777911608 | 13.89° C | 62% | 1000.6 hPa | 0 mm | - | 193 W/m² | - |
| 1777911304 | 13.89° C | 59% | 1000.7 hPa | 0 mm | - | 161 W/m² | - |
| 1777911002 | 14.44° C | 57% | 1000.7 hPa | 0 mm | - | 174 W/m² | - |
| 1777910700 | 15° C | 57% | 1000.7 hPa | 0 mm | - | 249 W/m² | - |
| 1777910395 | 15° C | 56% | 1000.7 hPa | 0 mm | - | 379 W/m² | - |
| 1777910092 | 15.56° C | 58% | 1001 hPa | 0 mm | - | 486 W/m² | - |
| 1777909790 | 15° C | 58% | 1001.1 hPa | 0 mm | - | 682 W/m² | - |
* Rain latest hour (hover to see other rain measurements)
** Current wind speed in m/s (hover to see current wind gust speed)